Theta_e
306 305 303 302 300 300 299 298 297 297 296 296 296 296 296 295 295 294 294 293 293 293 293 294 294 294 294 294 293 293 292 291 290 290 289 289 288 288 288 288 287 287
307 306 304 302 301 300 299 298 297 296 296 295 295 295 295 295 294 294 293 293 293 293 293 293 293 293 293 293 293 292 291 290 290 289 289 288 288 288 287 288 287 287
308 307 306 304 303 301 300 298 297 296 295 295 294 294 294 294 293 293 293 293 293 293 293 293 293 293 293 292 292 292 291 290 289 289 289 288 288 288 287 287 287 287
308 308 307 306 304 302 300 298 297 296 295 294 294 294 293 293 293 293 293 292 292 292 292 293 293 292 292 292 292 291 290 289 289 289 288 288 287 287 287 287 287 287
309 308 308 307 305 303 301 299 297 296 295 294 294 293 293 293 292 292 292 292 292 292 292 292 292 292 292 291 291 290 290 289 289 288 288 288 287 287 287 287 287 287
308 308 308 307 306 304 302 300 299 297 295 294 294 293 293 292 292 292 292 292 292 292 292 292 292 292 291 291 291 290 289 289 288 288 288 287 287 287 287 287 287 287
309 308 308 308 307 305 303 301 299 297 296 295 294 293 293 293 292 292 292 292 292 291 292 292 292 291 291 291 290 289 289 289 288 288 287 287 287 287 287 287 287 287
308 308 307 307 307 306 304 302 300 298 296 295 294 293 293 293 292 292 292 291 291 291 291 291 291 291 291 291 290 289 289 288 288 288 287 287 287 287 287 287 287 287
306 307 306 305 305 305 305 303 301 298 297 295 294 293 293 292 292 292 291 291 291 291 291 291 291 291 291 290 290 289 289 288 288 287 287 287 287 287 287 286 286 286
304 305 305 304 304 304 304 304 301 298 297 295 294 293 293 292 292 291 291 291 291 291 291 291 291 291 290 290 289 289 288 288 287 287 287 287 287 287 286 286 286 286
303 304 305 304 303 302 302 302 301 299 296 295 294 293 292 292 291 291 291 291 291 291 291 291 291 290 290 290 289 288 288 288 287 287 287 287 287 286 286 286 286 285
302 303 305 305 303 302 301 300 299 298 296 295 294 293 292 292 291 291 291 291 291 290 291 291 290 290 290 289 289 288 288 287 287 287 286 286 286 286 286 285 285 285
302 303 305 305 304 302 300 298 297 297 296 295 294 293 292 291 291 291 290 290 290 290 290 290 290 290 290 289 288 288 287 287 287 286 286 286 286 286 286 285 285 285
302 302 302 304 303 301 299 297 296 295 294 294 293 292 292 291 291 290 290 290 290 290 290 290 290 290 289 289 288 288 287 287 286 286 286 286 286 285 285 285 285 285
302 300 300 301 301 300 298 297 296 294 294 293 292 292 292 291 290 290 290 290 290 290 290 289 289 289 289 288 288 287 287 286 286 286 286 286 285 285 285 285 284 284
301 300 299 298 299 299 298 297 295 294 293 293 292 291 291 290 290 289 289 289 289 290 289 289 289 289 288 288 287 287 286 286 286 285 285 285 285 285 284 284 284 284
300 300 299 298 298 298 297 296 295 294 293 292 291 291 291 290 289 289 289 289 289 289 289 289 289 288 288 287 287 286 286 286 285 285 286 285 285 284 284 284 283 283
300 300 298 297 297 297 296 296 295 294 293 292 291 291 291 290 289 289 289 289 289 289 289 289 288 288 287 287 286 286 286 286 286 286 286 285 285 284 283 283 282 282
300 299 298 297 297 297 296 295 294 293 293 292 291 291 291 290 289 289 289 289 289 288 288 288 288 287 287 286 286 286 286 286 286 286 286 285 284 283 282 282 281 281
299 299 298 297 296 296 295 294 294 293 292 291 291 290 290 289 289 288 288 288 288 288 288 288 287 287 286 286 286 286 286 286 286 285 285 284 283 282 282 281 280 280
299 298 297 296 296 295 294 294 293 292 291 291 290 290 290 289 289 288 288 288 287 287 287 287 286 286 286 286 286 286 286 285 285 284 284 283 282 281 281 280 280 280
299 298 297 296 295 294 294 293 293 292 291 290 290 289 289 288 288 288 288 287 287 287 287 286 286 286 287 287 287 286 285 285 284 284 283 282 281 281 280 280 280 279
299 298 297 296 295 294 294 293 292 291 290 290 289 289 289 288 288 287 287 287 287 287 286 286 287 288 288 287 286 286 285 284 284 283 282 281 280 280 280 279 279 279
299 297 296 296 295 294 294 293 292 291 290 290 289 289 289 288 287 287 287 286 286 286 286 287 288 288 288 287 286 285 284 284 283 282 281 280 280 280 279 279 279 279
299 298 297 296 296 295 294 293 292 291 290 289 289 289 288 288 287 287 286 286 286 286 287 288 288 288 287 287 286 284 284 283 283 282 281 280 280 279 279 279 279 279
299 298 297 297 296 294 293 292 291 290 289 289 288 288 287 287 286 286 286 286 286 286 288 288 288 288 287 286 285 284 283 283 282 281 280 279 279 279 278 278 278 278
Wind_Speed
35 38 40 41 42 43 44 45 45 45 45 44 42 40 38 36 35 34 33 32 30 29 28 27 26 25 25 23 22 21 21 22 23 24 24 24 21 19 19 18 18 19
34 36 39 41 42 43 44 45 45 45 45 44 42 39 37 35 35 34 33 32 31 30 29 28 27 26 25 23 22 22 22 23 23 24 24 23 21 20 19 19 19 20
33 34 36 38 40 42 43 44 44 44 44 43 42 40 38 36 35 34 33 32 31 31 30 29 27 26 25 23 22 22 22 24 24 24 24 22 20 20 19 20 20 20
32 33 34 36 38 41 43 43 44 45 45 44 43 41 39 37 36 35 34 33 32 32 31 29 28 26 25 23 23 23 24 24 24 24 23 22 20 20 20 20 20 20
32 33 34 35 38 40 42 43 44 45 46 45 44 42 41 39 37 36 34 33 32 32 31 29 28 26 25 24 23 24 24 24 24 24 23 21 20 21 21 20 21 21
36 36 36 36 38 39 41 43 44 45 46 46 45 44 42 41 38 36 35 33 32 32 31 30 28 27 25 24 24 25 25 25 24 24 23 22 21 21 21 21 22 22
39 39 39 39 39 40 41 42 43 45 46 46 46 45 43 42 39 37 35 34 33 32 31 30 29 27 26 25 25 26 25 25 24 24 23 22 22 21 21 21 22 23
43 43 43 43 42 42 42 43 44 45 46 47 47 45 44 42 40 38 36 35 34 32 32 31 30 28 27 26 26 26 26 25 24 24 23 23 22 22 21 21 23 24
48 47 47 46 45 44 44 45 45 46 46 47 47 46 45 43 41 39 37 36 35 33 33 32 31 29 28 27 27 27 26 25 24 23 23 23 23 22 21 22 23 24
51 49 49 49 48 47 46 46 47 47 47 47 47 46 45 44 42 40 38 37 36 34 34 33 32 30 29 28 28 27 26 25 24 23 23 23 23 22 22 22 23 24
54 52 50 50 50 50 49 48 48 48 48 48 47 46 45 45 43 42 41 39 37 36 35 34 33 31 29 29 28 27 26 24 23 23 24 23 23 22 22 23 24 24
56 53 50 50 51 51 51 51 50 50 49 49 48 47 46 46 45 43 42 40 38 36 35 34 33 31 30 29 28 27 25 24 23 24 24 23 23 22 23 23 24 25
56 54 50 48 50 51 52 52 52 51 50 49 48 47 46 46 46 44 42 40 38 37 35 35 33 31 30 29 28 26 25 24 24 23 24 23 23 23 23 23 24 25
55 54 51 47 48 50 52 52 52 51 50 49 47 46 46 46 45 44 42 40 38 37 36 35 33 32 31 29 27 25 24 24 24 24 24 23 23 23 23 24 25 26
52 53 52 49 47 50 51 52 52 51 50 49 47 46 45 45 45 44 42 41 39 38 37 36 34 32 30 28 26 25 24 24 24 23 23 23 23 24 24 24 26 27
50 50 51 50 48 49 50 51 51 51 50 49 47 45 45 45 45 44 43 41 40 39 38 36 34 31 29 27 25 24 24 23 23 23 23 23 24 24 25 25 26 27
48 49 50 50 49 49 50 50 50 50 50 49 47 46 45 46 46 46 44 42 41 40 38 36 33 31 28 26 24 24 23 22 22 23 23 24 25 25 26 26 26 26
47 48 49 50 49 48 49 49 49 50 49 49 48 46 46 47 48 47 45 43 42 40 38 35 32 30 27 25 24 23 22 21 22 24 25 25 25 26 27 26 26 26
46 47 48 49 49 48 48 48 49 50 49 49 48 46 46 48 49 48 46 44 42 40 37 35 31 29 26 24 23 21 21 22 24 25 25 25 25 26 26 25 25 26
46 47 47 48 48 47 48 48 49 49 49 48 47 46 47 49 49 48 46 44 41 39 37 33 30 27 25 23 21 20 21 23 24 25 25 25 25 25 25 24 24 25
46 46 47 48 47 48 48 48 49 49 48 48 46 46 47 48 49 48 45 43 41 38 35 31 28 26 23 21 20 20 22 23 24 25 25 24 24 24 24 24 24 24
46 46 47 47 47 48 48 48 48 48 48 47 46 46 47 49 49 47 45 43 40 37 33 29 27 24 22 21 21 22 23 24 25 25 24 23 23 24 23 23 23 23
45 46 46 47 48 48 48 48 48 48 48 47 47 47 48 49 48 46 44 42 39 35 32 28 26 24 23 22 22 22 23 25 25 24 22 22 23 23 23 23 22 21
44 45 45 46 47 47 48 48 48 48 48 47 47 47 47 48 47 45 43 41 37 34 30 28 27 25 24 23 23 23 24 25 24 23 22 22 22 23 22 22 20 19
42 43 44 45 46 46 47 47 47 47 47 46 46 46 46 47 46 45 44 40 37 33 30 28 27 26 24 24 23 24 25 25 24 22 21 21 22 22 22 20 18 18
41 42 43 44 45 45 46 46 46 46 46 46 46 46 46 47 46 46 44 40 37 33 31 29 28 26 25 25 24 24 24 24 23 21 20 21 22 21 20 18 17 18
Wind_Direction
244 244 245 244 243 244 243 243 243 242 243 242 242 241 241 240 239 238 238 238 238 240 242 245 248 251 255 259 262 267 271 275 279 285 290 294 296 299 302 304 307 309
242 244 244 244 244 244 243 243 243 244 244 243 243 242 240 239 238 237 238 238 239 240 241 244 247 250 254 257 261 266 269 273 278 284 289 292 294 297 300 302 304 306
239 242 245 246 246 245 243 242 242 243 243 243 242 241 239 237 236 237 237 238 239 239 241 244 247 250 253 256 260 264 267 272 279 284 289 291 292 295 298 299 302 305
237 241 244 246 247 246 244 242 241 241 240 240 240 239 238 236 236 236 237 238 239 239 241 244 246 249 252 256 259 263 267 272 279 284 287 289 291 293 295 297 302 305
237 239 242 245 245 245 245 243 242 241 240 239 238 238 237 237 236 236 237 238 239 240 241 243 246 249 251 255 258 262 267 273 279 283 285 287 289 291 294 298 302 303
236 238 239 242 244 244 245 245 243 241 240 239 238 237 237 237 237 237 238 239 239 240 242 243 246 248 251 254 257 262 268 273 279 281 283 286 287 290 295 298 300 301
236 237 237 239 241 243 244 244 243 242 240 239 238 237 237 236 236 237 238 239 239 240 242 243 245 247 250 253 256 262 268 272 277 280 282 285 287 290 294 297 298 298
235 236 236 237 239 241 242 242 242 241 239 238 237 236 236 236 236 236 236 237 238 239 241 242 244 246 248 252 256 261 267 271 275 278 281 283 286 290 293 294 295 296
234 236 237 237 238 239 241 242 241 240 238 237 236 235 235 235 234 234 235 236 237 238 240 241 243 245 247 250 255 260 266 270 273 276 279 282 286 289 291 292 293 296
235 237 237 238 238 239 240 241 240 239 237 236 235 234 233 233 232 232 232 234 235 237 238 240 241 243 245 249 254 260 264 268 272 275 277 280 284 286 289 292 293 296
237 237 238 239 240 240 240 240 239 238 236 235 234 233 232 231 230 230 231 232 234 236 238 239 239 241 244 248 254 259 263 267 269 272 275 278 283 286 289 291 293 297
238 238 241 242 241 241 241 240 238 237 235 234 233 232 231 230 229 230 231 232 234 235 236 236 237 239 243 248 254 258 262 266 268 270 274 278 282 286 288 291 294 296
240 240 243 245 243 242 241 239 238 237 235 234 233 232 230 230 229 229 230 231 232 233 234 235 235 238 242 247 253 258 261 264 267 270 273 278 282 285 288 292 295 296
242 241 242 244 244 241 239 239 238 237 235 234 233 231 231 231 229 229 229 230 231 232 232 233 235 237 242 248 252 256 260 263 266 269 273 278 282 285 289 292 294 296
242 241 240 241 241 239 239 238 237 236 235 234 233 231 231 230 229 229 229 229 230 230 231 232 234 237 242 247 251 255 258 261 265 269 273 279 283 286 290 292 294 295
241 241 240 239 239 239 238 237 237 236 235 234 232 230 230 229 228 227 228 229 229 230 230 230 233 237 242 247 250 253 257 260 264 270 275 281 285 287 289 292 294 296
240 240 240 239 239 239 238 237 236 235 234 233 231 229 229 228 227 227 227 227 228 228 229 229 232 236 241 245 248 251 255 259 265 272 278 282 285 287 290 293 295 298
241 240 239 239 239 239 238 236 236 235 233 232 230 229 228 228 227 226 226 226 226 226 227 228 231 236 239 242 246 249 256 262 268 274 278 282 286 289 292 294 297 301
241 240 240 239 239 239 237 236 235 234 233 232 230 229 228 227 226 225 225 225 224 225 226 227 231 235 237 240 244 250 259 266 271 274 277 282 286 288 291 294 299 301
242 241 240 240 239 238 237 235 235 234 233 232 229 228 227 226 225 224 224 224 223 223 224 227 230 232 233 237 243 251 259 264 269 272 275 280 284 286 289 294 297 298
242 241 240 239 238 236 236 235 234 233 232 230 228 227 227 226 225 224 223 222 221 222 224 226 227 229 231 237 245 251 257 262 267 271 275 279 282 285 288 291 293 294
242 240 239 237 236 235 234 234 233 232 231 229 227 226 225 225 224 223 221 220 220 221 223 223 225 228 232 239 246 251 256 261 265 268 273 278 281 282 284 287 289 292
242 240 238 237 236 235 234 233 232 231 229 228 226 224 224 223 222 220 219 219 219 220 220 221 224 230 234 239 244 250 254 258 262 266 272 276 277 279 282 285 288 293
243 240 239 238 237 237 236 234 232 231 229 228 226 225 223 221 220 218 217 217 218 218 218 221 226 229 232 237 243 248 252 256 260 265 269 272 275 277 280 284 290 298
242 241 240 241 240 239 237 235 233 232 230 227 226 225 223 220 217 216 216 215 215 215 216 221 226 228 232 237 242 246 250 255 259 263 266 270 273 275 279 285 294 300
243 242 242 242 241 239 237 235 234 232 229 226 224 223 220 218 216 214 214 214 213 214 216 221 226 228 231 236 239 243 248 254 257 260 265 268 271 274 281 289 295 300